Location: Kalamazoo
(42.2920°N, 85.5870°W)
Time: 09:46:33
(UTC-04:00)

Daily predictions for brighter satellites

Satellite Brightness Start Highest point End
(mag) Time Altitude Azimuth Time Altitude Azimuth Time Altitude Azimuth
GPS 2-04 Rocket1 4.0 19:47:14 10° SW 19:49:59 22° SSE 19:52:47 10° ESE
NOAA 12 4.4 19:47:10 10° SE 19:52:10 47° ENE 19:57:15 10° N
SAR-Lupe-1 4.5 19:49:12 10° SE 19:52:33 41° ENE 19:55:56 10° N
Meteor 1-28 Rocket 3.8 19:49:51 10° NNE 19:53:17 34° E 19:56:40 10° SSE
Cosmos 1943 Rocket 3.9 19:56:08 10° N 19:59:25 16° NE 20:02:41 10° E
NOSS 3-2 (C) 3.8 19:55:05 10° SW 20:01:10 73° NW 20:07:52 10° NNE
Cosmos 1420 Rocket 4.2 19:57:02 10° N 20:02:15 53° ENE 20:07:26 10° SE
Cosmos 1346 3.5 20:03:00 10° N 20:05:50 39° ENE 20:08:39 10° SSE
Cosmos 1408 Rocket 3.5 20:01:31 10° N 20:05:52 83° E 20:10:11 10° S
Cosmos 1500 Rocket 4.4 20:03:33 10° NNE 20:07:26 29° ENE 20:11:19 10° SE
SKYMED 2 4.0 20:04:07 10° N 20:08:27 68° WNW 20:12:45 10° SSW
Cosmos 1842 Rocket 4.4 20:06:16 10° SSE 20:09:57 28° E 20:13:41 10° NNE
Cosmos 1464 Rocket 4.1 20:04:40 10° S 20:10:55 88° W 20:17:07 10° N
Helios 1A 3.7 20:07:16 10° SE 20:11:03 34° ENE 20:14:54 10° N
Cosmos 2369 Rocket 2.8 20:06:13 10° N 20:11:27 37° ENE 20:16:41 10° SE
Cosmos 2034 Rocket 4.0 20:05:34 10° S 20:11:48 71° E 20:18:08 10° NNE
Cosmos 1805 3.2 20:08:21 10° S 20:12:16 73° E 20:16:13 10° NNE
Cosmos 1943 3.8 20:09:00 10° SSE 20:13:59 34° ESE 20:19:00 10° NE
FREGAT/IRIS 2.6 20:12:35 10° SSE 20:15:37 61° ENE 20:18:41 10° N
Spot 2 Rocket 3.6 20:12:25 10° SE 20:17:17 51° ENE 20:22:09 10° N
Cosmos 1048 Rocket 4.0 20:16:27 10° S 20:21:39 59° ESE 20:26:47 10° NNE
Cosmos 1603 3.8 20:16:27 10° SSW 20:22:12 90° NW 20:28:00 10° NNE
HJ-1C 3.5 20:22:15 10° SSE 20:25:31 54° ENE 20:28:50 10° N
Cosmos 1733 3.9 20:23:01 10° SSE 20:26:28 32° E 20:29:55 10° NNE
Cosmos 158 Rocket 4.3 20:22:38 10° S 20:27:06 37° ESE 20:31:35 10° NE
Gbstr 26 Del rocket 3.3 20:24:21 10° SW 20:28:34 57° SE 20:32:54 14° ENE
Cosmos 1269 Rocket 3.9 20:24:21 10° SSW 20:29:36 81° ESE 20:34:55 10° NNE
Cosmos 1674 2.8 20:28:07 10° N 20:31:57 53° E 20:35:44 10° SSE
Cosmos 1174 4.1 20:27:25 10° SSW 20:32:00 48° ESE 20:35:32 11° NE
Cosmos 1953 2.8 20:28:08 10° SSW 20:32:04 63° W 20:36:02 10° N
USA 215 3.7 20:26:17 10° ENE 20:32:23 40° SE 20:38:26 10° SSW
TELKOM 3 3.2 20:30:01 10° WNW 20:32:53 70° SW 20:33:42 34° SE
Helios 1B rocket 2.4 20:31:31 10° NNE 20:35:36 59° ESE 20:39:39 10° S
Spot 1 4.1 20:31:07 10° SSE 20:35:46 86° ENE 20:40:09 10° NNW
Cosmos 1743 Rocket 3.5 20:33:04 10° N 20:37:31 86° E 20:41:55 10° S
Cosmos 1470 2.7 20:34:59 10° S 20:38:47 56° E 20:42:36 10° NNE
CZ-4B DEB 3.4 20:39:43 33° E 20:40:12 35° ENE 20:43:13 10° N
Resurs 1-3 3.5 20:38:20 10° SSE 20:42:40 68° ENE 20:47:03 10° N
ATLAS 5 CENTAUR R/B 3.5 20:38:51 10° WSW 20:43:17 34° NW 20:48:05 10° NNE
Cosmos 1544 3.7 20:42:43 10° SSW 20:46:24 60° W 20:50:08 10° N
Resurs 01 Rocket 1.8 20:48:50 10° S 20:53:17 72° WSW 20:57:44 10° NNW
ERS-1 Rocket 4.3 20:56:03 22° ENE 20:56:03 22° ENE 20:59:32 10° NNE
Cosmos 2058 3.7 20:52:31 10° NNE 20:55:45 31° ENE 20:55:45 31° ENE
Meteor 1-16 Rocket 4.2 20:54:04 10° SSE 20:59:06 46° E 21:04:11 10° NNE
SL-8 R/B 4.0 20:56:58 10° WSW 21:01:43 62° NNW 21:04:09 28° NE
ALOS 2.1 20:58:30 15° SSE 21:02:19 79° ENE 21:07:00 10° N
FengYun 1-2 T 4.3 21:00:42 10° S 21:06:12 76° WSW 21:11:43 10° NNW
Cosmos 2151 2.8 21:05:56 10° N 21:10:10 73° E 21:11:12 49° SSE
ASTEX 1 3.3 21:05:18 10° N 21:10:14 89° W 21:15:07 10° S
Meteor 1-29 3.6 21:07:00 10° N 21:10:27 57° WNW 21:13:51 10° SSW
Cosmos 1110 Rocket 3.9 21:07:13 10° NNW 21:12:31 69° ENE 21:14:19 41° SE
Cosmos 2279 Rocket 4.1 21:09:23 17° SSE 21:13:53 48° E 21:19:49 10° NNE
GP-B 3.0 21:09:33 10° N 21:14:00 70° E 21:15:21 43° SSE
Meteor 1-11 4.2 21:09:53 10° N 21:15:40 65° ENE 21:17:57 36° SSE
FENGYUN 3A 3.7 21:13:33 12° S 21:18:31 79° WSW 21:23:57 10° NNW
Cosmos 1805 Rocket 4.3 21:15:17 10° N 21:18:30 38° NE 21:18:30 38° NE
Cosmos 2221 3.7 21:21:55 29° NNE 21:21:55 29° NNE 21:24:08 10° NNE
ISS -1.8 21:17:34 10° W 21:20:32 31° NNW 21:20:45 31° NNW
Cosmos 1092 Rocket 4.4 21:16:42 10° NNW 21:22:49 63° W 21:28:50 10° S
Abrixas 4.5 21:22:55 10° WNW 21:25:01 27° NW 21:25:01 27° NW
GPS 2-04 Rocket1 4.4 21:26:17 10° WSW 21:28:00 21° SW 21:28:00 21° SW
Cosmos 2026 Rocket 3.8 21:26:33 10° N 21:32:42 88° E 21:35:54 31° S
CZ-2D R/B 3.9 21:32:42 51° SW 21:33:11 55° W 21:37:01 10° NNW
CENTAUR R/B 3.0 21:27:15 10° SW 21:33:18 62° NW 21:40:10 10° NNE
Cosmos 1428 Rocket 4.5 21:27:50 10° N 21:34:03 61° E 21:34:49 56° ESE
Cosmos 2251 Rocket 3.4 21:29:12 10° SSW 21:34:25 88° WNW 21:39:42 10° NNE
Cosmos 494 Rocket 4.0 21:29:39 10° S 21:37:17 32° NNE 21:40:00 10° NNE
Cosmos 839 Rocket 4.5 21:29:05 10° NW 21:36:30 64° WSW 21:39:42 31° S
Cosmos 1655 Rocket 3.9 21:31:09 10° N 21:37:24 87° E 21:39:53 40° S
SL-14 R/B 4.1 21:34:18 10° N 21:37:14 46° NNW 21:37:14 46° NNW
Cosmos 1634 Rocket 4.4 21:33:54 10° SSW 21:40:03 63° W 21:46:13 10° N
ERBS 4.1 21:37:21 10° NW 21:39:19 31° NW 21:39:19 31° NW
H-2A R/B 3.8 21:41:19 42° WSW 21:41:38 43° W 21:45:20 10° NNW
Cosmos 1331 Rocket 4.1 21:37:23 10° NNW 21:42:42 75° WSW 21:43:31 62° SSW
Cosmos 1943 Rocket 2.0 21:38:23 10° NNW 21:44:02 87° ENE 21:44:23 80° SE
Meteor 2-20 4.3 21:41:28 10° N 21:47:38 74° E 21:47:51 73° E
Cosmos 2369 Rocket 3.7 21:50:22 10° NW 21:55:23 33° WSW 21:58:45 18° SSW
Cosmos 1302 Rocket 4.3 21:52:00 10° NNW 21:56:16 60° NNW 21:56:16 60° NNW
Envisat 4.0 22:08:51 41° N 22:08:51 41° N 22:12:07 10° NNW
USA 215 3.5 22:13:01 38° NNE 22:15:33 63° NW 22:21:59 10° WSW
Gbstr 26 Del rocket 4.5 22:11:15 10° W 22:15:31 42° NNW 22:15:31 42° NNW
